Weather in Novopavlovka

Russia / Orenburg Oblast     51°08′26″N   55°35′57″E
temp.,
°C
wind,
m/s
gust,
m/s
humid.,
%
clouds,
%
prec.,
mm/h
press.,
hPa
HPBL,
m
17 june, thu
thu1723:00+26sse342958 0.0 101045
02:00+22sse3331100 0.0 100916
05:00+21sw343496 0.0 100952
08:00+24wnw46500 0.0 1009278
11:00+27wnw56485 0.0 10091255
14:00+29wnw68420 0.0 10102137
17:00+29nw89385 0.0 10092458
20:00+23nnw1011685 0.0 1012844
18 june, fri
fri1823:00+18n712770 0.0 1014689
02:00+16n613670 0.0 1015488
05:00+14nnw612670 0.0 1016368
08:00+16n711600 0.0 1017537
11:00+20n810400 0.0 10181614
14:00+22n810360 0.0 10182085
17:00+22n89362 0.0 10182217
20:00+19n79490 0.0 1020781
19 june, sat
sat1923:00+16n613592 0.0 1022404
02:00+13nne613670 0.0 1022323
05:00+11nne49755 0.0 1024175
08:00+16nne465762 0.0 1025276
11:00+21n54405 0.0 10251049
14:00+23n443281 0.0 10241681
17:00+24n55335 0.0 10231675
20:00+22n464536 0.0 1023398
20 june, sun
sun2023:00+17nnw23623 0.0 102315
02:00+15nnw33730 0.0 102328
05:00+14nw33780 0.0 102350
08:00+19nw58640 0.0 1023364
11:00+24nw67540 0.0 1022988
14:00+28nw784230 0.0 10202257
17:00+29nnw89370 0.0 10182532
20:00+27nnw6104897 0.0 1018525
21 june, mon
mon2123:00+22nnw49630 0.0 1019165
02:00+19n37790 0.0 1019136
05:00+18n37880 0.0 1020122
08:00+22n69580 0.0 1021546
11:00+26n67400 0.0 10211188
14:00+28n67360 0.0 10201705
17:00+29n67350 0.0 10192141
20:00+26nne58456 0.0 1019416